Hourly Data Report for October 01, 2017

All times are specified in Local Standard Time (LST). Add 1 hour to adjust for Daylight Saving Time where and when it is observed.

SECHELT AUT
BRITISH COLUMBIA

49°27'28.788" N
123°42'54.945" W
86.20 m
1047172
71638
VOU

Download Data

Hourly Data (October 2017)
Hourly Data Report for October 1, 2017
Temp Definition
°C
Dew Point Temp Definition
°C
Rel Hum Definition
%
Wind Dir Definition
10's deg

Wind Spd Definition
km/h
Visibility Definition
km
Stn Press Definition
kPa
Hmdx Definition


Wind Chill Definition


Weather Definition


TIME
00:00 7.7 6.9 94 29 5   100.83     LegendNANA
01:00 7.3 6.6 95 36 5   100.84     LegendNANA
02:00 7.3 6.6 95 34 6   100.83     LegendNANA
03:00 7.9 6.5 91 17 3   100.85     LegendNANA
04:00 8.6 7.0 90 29 4   100.88     LegendNANA
05:00 9.5 6.2 80 1 7   100.90     LegendNANA
06:00 9.4 6.5 82 36 2   100.92     LegendNANA
07:00 9.3 5.9 79 32 7   100.95     LegendNANA
08:00 10.6 8.0 84 33 13   101.00     LegendNANA
09:00 12.0 8.2 77 32 11   100.99     LegendNANA
10:00 13.2 7.7 70 32 15   101.00     LegendNANA
11:00 14.1 9.4 73 27 7   101.00     LegendNANA
12:00 14.9 9.0 68 27 8   101.00     LegendNANA
13:00 14.2 8.1 67 26 12   101.01     LegendNANA
14:00 14.6 6.8 60 26 13   100.98     LegendNANA
15:00 14.5 8.1 65 26 10   100.99     LegendNANA
16:00 14.8 7.7 63 27 9   100.97     LegendNANA
17:00 14.1 7.5 64 28 7   100.95     LegendNANA
18:00 11.3 8.1 81 35 5   100.97     LegendNANA
19:00 9.2 7.6 90 33 5   100.98     LegendNANA
20:00 8.5 6.9 89 34 5   100.99     LegendNANA
21:00 8.7 7.1 90 32 5   100.97     LegendNANA
22:00 8.4 6.4 88 4 2   101.00     LegendNANA
23:00 6.8 5.4 90 34 5   101.01     LegendNANA

Notes on Data Quality.

Legend

  • E = Estimated
  • M = Missing
  • NA = Not Available
  • ‡ = Partner data that is not subject to review by the National Climate Archives
Date modified: